1497938401.1,41576,20.69,74508.3,19.45,-25.87,-27.03,0,*4B
1497938402.3,41577,20.69,74508.0,19.45,-25.65,-26.87,0,*4B
1497938403.55,41578,20.69,74510.8,19.45,-25.75,-26.93,0,*40
1497938404.76,41579,20.69,74506.0,19.45,-25.35,-26.39,0,*45
1497938406.01,41580,20.63,74504.3,19.43,-23.79,-24.87,0,*4C
1497938407.3,41581,20.63,74502.5,19.43,-24.67,-25.71,0,*4D
1497938408.57,41582,20.69,74504.5,19.43,-23.23,-24.11,0,*4E
1497938409.78,41583,20.63,74506.8,19.45,-22.41,-23.43,0,*4C
1497938411.0,41584,20.69,74508.0,19.47,-22.63,-23.59,0,*42
1497938412.23,41585,20.69,74510.8,19.45,-23.65,-24.77,0,*4D
1497938413.47,41586,20.63,74504.3,19.45,-24.51,-25.55,0,*4F
1497938414.71,41587,20.69,74510.8,19.47,-24.47,-25.49,0,*46
1497938415.95,41588,20.69,74508.0,19.45,-23.53,-24.51,0,*41
1497938417.18,41589,20.69,74504.3,19.45,-24.77,-26.17,0,*41
1497938418.46,41590,20.69,74506.8,19.43,-23.53,-24.41,0,*4F
1497938419.68,41591,20.69,74508.3,19.45,-22.67,-23.65,0,*4F
1497938420.95,41592,20.69,74506.5,19.47,-22.73,-23.69,0,*47
1497938422.17,41593,20.63,74504.3,19.45,-22.57,-23.43,0,*4A
1497938423.42,41594,20.69,74508.8,19.47,-22.57,-23.53,0,*4E
1497938424.66,41595,20.69,74506.0,19.47,-22.73,-23.59,0,*43
1497938425.92,41596,20.63,74504.8,19.49,-22.31,-23.29,0,*4F
1497938427.14,41597,20.63,74504.3,19.53,-23.49,-24.51,0,*43
1497938428.35,41598,20.69,74506.5,19.53,-24.35,-25.23,0,*44
1497938429.55,41599,20.69,74506.0,19.53,-23.89,-24.93,0,*4F
1497938430.78,41600,20.69,74506.5,19.49,-23.65,-24.47,0,*4C
1497938432.0,41601,20.63,74506.0,19.49,-22.67,-23.65,0,*49
1497938433.23,41602,20.63,74506.3,19.49,-23.65,-24.57,0,*4F
1497938434.49,41603,20.69,74510.8,19.53,-22.47,-23.49,0,*4C
1497938435.69,41604,20.63,74504.0,19.53,-22.53,-23.59,0,*4F
1497938436.89,41605,20.69,74510.0,19.53,-22.97,-24.05,0,*48
1497938438.15,41606,20.69,74508.3,19.53,-23.29,-24.21,0,*49
1497938439.39,41607,20.63,74508.5,19.55,-22.41,-23.29,0,*4E
1497938440.65,41608,20.69,74508.8,19.57,-22.21,-23.23,0,*4F
1497938441.86,41609,20.63,74506.0,19.57,-23.43,-24.47,0,*4E
1497938443.08,41610,20.69,74506.0,19.57,-22.07,-23.03,0,*40
1497938444.32,41611,20.63,74504.3,19.57,-22.73,-23.53,0,*47
1497938445.57,41612,20.69,74508.3,19.59,-23.33,-24.31,0,*4C
1497938446.82,41613,20.69,74508.0,19.59,-24.31,-25.45,0,*4A
1497938448.05,41614,20.63,74506.8,19.57,-25.97,-27.03,0,*4E
1497938449.31,41615,20.69,74506.5,19.55,-25.19,-26.33,0,*49
1497938450.53,41616,20.69,74510.5,19.55,-22.83,-23.89,0,*4A
1497938451.76,41617,20.69,74506.0,19.55,-22.53,-23.59,0,*4B
1497938452.99,41618,20.69,74502.3,19.57,-23.59,-24.71,0,*40
1497938454.22,41619,20.63,74496.3,19.55,-22.53,-23.59,0,*45
1497938455.45,41620,20.63,74496.8,19.57,-22.37,-23.23,0,*42
1497938456.72,41621,20.63,74496.8,19.59,-23.33,-24.21,0,*4D
1497938457.94,41622,20.63,74498.8,19.59,-23.39,-24.51,0,*43
1497938459.17,41623,20.63,74502.0,19.57,-23.53,-24.51,0,*40
1497938460.42,41624,20.63,74502.0,19.57,-23.03,-23.99,0,*41
1497938461.64,41625,20.69,74500.8,19.59,-23.39,-24.47,0,*43
1497938462.89,41626,20.69,74504.0,19.59,-25.13,-26.29,0,*44
1497938464.17,41627,20.69,74502.3,19.59,-25.55,-27.61,0,*4A
1497938465.39,41628,20.69,74506.5,19.55,-25.09,-26.23,0,*47
1497938466.65,41629,20.63,74504.0,19.49,-24.83,-25.97,0,*44
1497938467.87,41630,20.69,74506.3,19.53,-24.35,-25.49,0,*49
1497938469.08,41631,20.69,74508.0,19.53,-24.77,-26.03,0,*43
1497938470.34,41632,20.63,74506.3,19.49,-25.55,-26.77,0,*49
1497938471.57,41633,20.69,74504.3,19.49,-23.85,-24.93,0,*4B
1497938472.82,41634,20.63,74504.0,19.47,-23.53,-24.47,0,*40
1497938474.08,41635,20.69,74508.0,19.47,-25.13,-26.33,0,*42
1497938475.34,41636,20.63,74502.3,19.47,-24.67,-25.61,0,*47
1497938476.6,41637,20.63,74500.3,19.45,-23.53,-24.71,0,*44
1497938477.88,41638,20.69,74506.8,19.47,-23.99,-25.03,0,*4B
1497938479.09,41639,20.63,74504.3,19.47,-23.39,-24.35,0,*44
1497938480.34,41640,20.69,74506.0,19.47,-23.23,-24.31,0,*45
1497938481.57,41641,20.69,74504.8,19.49,-22.97,-23.95,0,*4D
1497938482.83,41642,20.63,74504.0,19.47,-23.59,-24.71,0,*4E
1497938484.09,41643,20.69,74510.8,19.49,-23.29,-24.25,0,*47
1497938485.3,41644,20.69,74508.0,19.49,-22.53,-23.43,0,*4B
1497938486.56,41645,20.63,74504.8,19.49,-23.65,-24.67,0,*4F
1497938487.78,41646,20.63,74504.8,19.53,-24.87,-25.91,0,*44
1497938489.01,41647,20.69,74508.0,19.49,-23.65,-25.09,0,*44
1497938490.25,41648,20.69,74506.0,19.49,-25.61,-26.93,0,*49
1497938491.45,41649,20.69,74506.8,19.45,-26.49,-27.71,0,*40
1497938492.65,41650,20.63,74506.3,19.45,-27.71,-28.97,0,*45
1497938493.88,41651,20.63,74508.0,19.43,-27.89,-28.97,0,*45
1497938495.1,41652,20.63,74504.8,19.37,-27.35,-28.69,0,*43
1497938496.35,41653,20.69,74508.3,19.35,-25.87,-27.23,0,*4A
1497938497.58,41654,20.69,74504.5,19.33,-24.47,-25.61,0,*42
1497938498.79,41655,20.69,74508.0,19.33,-25.09,-26.39,0,*46
1497938500.02,41656,20.69,74506.0,19.33,-24.87,-25.87,0,*44
1497938501.25,41657,20.63,74504.3,19.33,-24.11,-25.13,0,*47
1497938502.49,41658,20.63,74502.0,19.35,-24.05,-25.09,0,*40
1497938503.72,41659,20.69,74504.5,19.33,-25.03,-25.87,0,*46
1497938505.0,41660,20.69,74504.0,19.35,-23.23,-24.21,0,*43
1497938506.28,41661,20.63,74502.5,19.35,-23.53,-24.67,0,*47
1497938507.51,41662,20.69,74504.8,19.33,-25.13,-26.55,0,*43
1497938508.76,41663,20.69,74502.5,19.33,-26.13,-27.45,0,*41
1497938509.98,41664,20.63,74502.5,19.31,-26.55,-27.77,0,*47
1497938511.17,41665,20.69,74502.0,19.27,-27.77,-29.23,0,*4F
1497938512.45,41666,20.63,74498.8,19.25,-26.71,-27.99,0,*46
1497938513.67,41667,20.63,74496.5,19.23,-25.61,-26.77,0,*42
1497938514.9,41668,20.63,74502.0,19.23,-24.25,-25.23,0,*4E
1497938516.15,41669,20.69,74500.0,19.23,-25.55,-26.71,0,*4D
1497938517.34,41670,20.63,74498.0,19.23,-25.39,-26.61,0,*4E
1497938518.57,41671,20.63,74496.5,19.23,-23.65,-24.61,0,*42
1497938519.78,41672,20.69,74502.8,19.25,-23.39,-24.57,0,*4B
1497938521.0,41673,20.69,74502.3,19.23,-24.87,-25.87,0,*42
1497938522.23,41674,20.69,74502.3,19.23,-24.25,-25.23,0,*43
1497938523.45,41675,20.63,74498.5,19.23,-25.29,-26.45,0,*4C
1497938524.7,41676,20.63,74496.3,19.23,-23.99,-24.71,0,*47
1497938525.9,41677,20.69,74496.3,19.23,-22.67,-23.75,0,*45
1497938527.1,41678,20.69,74498.5,19.23,-22.93,-23.89,0,*42
1497938528.32,41679,20.69,74500.5,19.23,-23.43,-24.41,0,*4C
1497938529.6,41680,20.63,74500.5,19.25,-22.77,-23.85,0,*45
1497938530.86,41681,20.69,74504.0,19.25,-23.43,-24.41,0,*4D
1497938532.05,41682,20.63,74500.5,19.27,-23.39,-24.31,0,*46
1497938533.25,41683,20.63,74502.5,19.31,-23.43,-24.47,0,*4C
1497938534.47,41684,20.63,74498.8,19.27,-22.87,-23.85,0,*4C
1497938535.67,41685,20.63,74498.5,19.31,-22.67,-23.59,0,*45
1497938536.86,41686,20.69,74500.8,19.31,-22.83,-23.79,0,*4E
1497938538.14,41687,20.63,74496.5,19.35,-22.31,-23.49,0,*41
1497938539.37,41688,20.69,74502.0,19.33,-22.07,-23.03,0,*43
1497938540.62,41689,20.63,74502.5,19.35,-22.77,-23.79,0,*4E
1497938541.88,41690,20.63,74500.8,19.37,-23.19,-24.21,0,*47
1497938543.11,41691,20.63,74500.0,19.37,-22.73,-23.75,0,*4D
1497938544.36,41692,20.63,74502.3,19.39,-22.67,-23.69,0,*48
1497938545.59,41693,20.63,74500.3,19.37,-23.53,-24.61,0,*4E
1497938546.79,41694,20.63,74502.0,19.37,-23.39,-24.47,0,*41
1497938548.01,41695,20.69,74506.3,19.39,-23.39,-24.35,0,*4B
1497938549.27,41696,20.63,74502.5,19.39,-23.49,-24.47,0,*4A
1497938550.52,41697,20.69,74504.8,19.39,-23.19,-24.31,0,*4F
1497938551.77,41698,20.63,74504.8,19.41,-23.69,-24.83,0,*41
1497938552.97,41699,20.69,74504.8,19.41,-25.23,-26.45,0,*40
1497938554.18,41700,20.69,74504.0,19.37,-24.05,-24.97,0,*48
1497938555.41,41701,20.63,74502.3,19.37,-23.53,-24.51,0,*47
1497938556.66,41702,20.69,74506.5,19.39,-22.93,-24.15,0,*47
1497938557.89,41703,20.69,74504.5,19.39,-23.39,-24.47,0,*40
1497938559.17,41704,20.69,74502.5,19.39,-22.77,-23.85,0,*45
1497938560.43,41705,20.63,74502.8,19.39,-23.65,-24.77,0,*4C
1497938561.69,41706,20.63,74502.8,19.39,-22.93,-23.85,0,*4D
1497938562.95,41707,20.69,74504.3,19.41,-22.31,-23.33,0,*46
1497938564.15,41708,20.63,74502.3,19.41,-22.87,-23.79,0,*4A
1497938565.41,41709,20.63,74500.3,19.43,-22.77,-23.75,0,*4A
1497938566.64,41710,20.63,74502.3,19.45,-23.59,-24.71,0,*4A
1497938567.9,41711,20.69,74506.3,19.43,-23.43,-24.41,0,*45
1497938569.16,41712,20.63,74506.0,19.43,-23.59,-24.71,0,*4E
1497938570.4,41713,20.69,74506.5,19.43,-24.35,-25.39,0,*4F
1497938571.63,41714,20.69,74506.0,19.41,-23.65,-24.61,0,*44
1497938572.87,41715,20.69,74506.3,19.45,-24.51,-25.71,0,*41
1497938574.1,41716,20.69,74506.8,19.43,-24.77,-25.91,0,*4E
1497938575.34,41717,20.69,74506.8,19.41,-26.93,-28.31,0,*42
1497938576.57,41718,20.63,74504.0,19.37,-25.81,-27.03,0,*42
1497938577.78,41719,20.69,74506.3,19.37,-24.35,-25.35,0,*4A
1497938579.01,41720,20.63,74498.5,19.37,-23.99,-24.97,0,*48
1497938580.23,41721,20.63,74502.3,19.37,-22.67,-23.65,0,*43
1497938581.46,41722,20.69,74504.0,19.37,-22.41,-23.49,0,*4A
1497938582.71,41723,20.63,74502.5,19.39,-22.41,-23.33,0,*48
1497938583.97,41724,20.63,74498.8,19.39,-22.57,-23.53,0,*4E
1497938585.25,41725,20.63,74498.0,19.39,-23.65,-24.67,0,*4F
1497938586.47,41726,20.63,74498.0,19.39,-25.35,-26.61,0,*4B
1497938587.71,41727,20.63,74496.3,19.39,-24.35,-25.49,0,*42
1497938588.97,41728,20.69,74500.0,19.39,-24.51,-25.45,0,*43
1497938590.23,41729,20.63,74500.3,19.39,-23.53,-24.51,0,*43
1497938591.49,41730,20.69,74502.5,19.39,-22.93,-23.85,0,*48
1497938592.75,41731,20.63,74500.8,19.39,-22.57,-23.53,0,*4A
1497938594.0,41732,20.63,74502.8,19.41,-22.21,-23.29,0,*4A
1497938595.23,41733,20.63,74502.8,19.41,-23.33,-24.57,0,*47
1497938596.51,41734,20.63,74502.5,19.43,-23.23,-24.25,0,*46
1497938597.77,41735,20.63,74500.8,19.43,-22.47,-23.43,0,*43
1497938599.0,41736,20.69,74504.8,19.41,-22.97,-23.95,0,*44
1497938600.24,41737,20.63,74502.8,19.43,-23.09,-24.05,0,*4F
1497938601.47,41738,20.63,74504.8,19.43,-22.93,-24.05,0,*42
1497938602.7,41739,20.63,74504.0,19.45,-22.31,-23.39,0,*45
1497938603.95,41740,20.63,74504.3,19.47,-21.97,-23.09,0,*45
1497938605.2,41741,20.69,74510.0,19.47,-22.57,-23.53,0,*44
1497938606.43,41742,20.63,74506.8,19.47,-22.41,-23.39,0,*4C
1497938607.65,41743,20.63,74506.0,19.47,-23.39,-24.51,0,*4A
1497938608.88,41744,20.69,74506.0,19.45,-24.11,-25.09,0,*4E
1497938610.14,41745,20.63,74506.8,19.49,-23.19,-24.25,0,*43
1497938611.35,41746,20.63,74504.8,19.49,-21.93,-22.87,0,*4E
1497938612.6,41747,20.63,74504.5,19.47,-23.23,-24.35,0,*47
1497938613.85,41748,20.63,74502.5,19.49,-23.53,-24.67,0,*46
1497938615.12,41749,20.63,74502.5,19.47,-23.69,-24.67,0,*40
1497938616.39,41750,20.63,74502.5,19.47,-23.23,-24.15,0,*43
1497938617.67,41751,20.63,74502.0,19.47,-23.23,-24.21,0,*45
1497938618.89,41752,20.63,74502.5,19.47,-23.39,-24.31,0,*4C
1497938620.14,41753,20.69,74504.3,19.49,-23.19,-23.95,0,*48
1497938621.38,41754,20.63,74498.8,19.49,-22.53,-23.49,0,*41
1497938622.61,41755,20.69,74502.8,19.49,-23.85,-24.93,0,*4A
1497938623.86,41756,20.63,74502.3,19.47,-23.19,-24.31,0,*4A
1497938625.09,41757,20.63,74502.5,19.47,-23.59,-24.61,0,*4A
1497938626.34,41758,20.63,74502.8,19.47,-23.23,-24.31,0,*4D
1497938627.58,41759,20.69,74506.3,19.47,-24.47,-25.65,0,*49
1497938628.83,41760,20.63,74500.5,19.47,-23.89,-24.83,0,*4F
1497938630.08,41761,20.63,74504.0,19.47,-23.49,-24.35,0,*4F
1497938631.33,41762,20.63,74504.8,19.47,-22.77,-23.89,0,*40
1497938632.55,41763,20.63,74502.3,19.47,-22.87,-23.89,0,*4E
1497938633.77,41764,20.63,74502.5,19.47,-22.87,-23.75,0,*4A
1497938635.0,41765,20.63,74500.5,19.49,-22.53,-23.65,0,*4D
1497938636.24,41766,20.63,74504.3,19.49,-21.77,-22.73,0,*4D
1497938637.44,41767,20.63,74504.0,19.53,-22.53,-23.59,0,*4B
1497938638.64,41768,20.63,74506.3,19.53,-22.97,-23.79,0,*4E
1497938639.86,41769,20.63,74506.5,19.53,-22.31,-23.39,0,*47
1497938641.09,41770,20.63,74506.8,19.53,-22.27,-23.33,0,*42
1497938642.28,41771,20.63,74504.3,19.53,-22.41,-23.39,0,*49
1497938643.54,41772,20.69,74504.3,19.55,-23.13,-24.25,0,*40
1497938644.76,41773,20.69,74508.8,19.55,-22.83,-23.79,0,*47
1497938645.99,41774,20.63,74506.3,19.55,-21.73,-22.53,0,*45
1497938647.25,41775,20.63,74506.0,19.55,-21.87,-22.93,0,*43
1497938648.45,41776,20.63,74506.5,19.57,-22.11,-23.09,0,*4C
1497938649.65,41777,20.63,74506.0,19.57,-22.07,-23.09,0,*4A
1497938650.92,41778,20.63,74508.8,19.59,-22.77,-23.99,0,*45
1497938652.17,41779,20.63,74506.8,19.61,-22.31,-23.29,0,*46
1497938653.37,41780,20.63,74508.8,19.61,-21.93,-22.87,0,*4E
1497938654.58,41781,20.63,74504.8,19.61,-21.77,-22.83,0,*41
1497938655.8,41782,20.63,74506.8,19.61,-21.87,-22.87,0,*49
1497938657.03,41783,20.69,74510.0,19.63,-22.11,-23.09,0,*41
1497938658.27,41784,20.63,74508.8,19.65,-21.77,-22.63,0,*4E
1497938659.52,41785,20.63,74508.5,19.65,-22.11,-23.03,0,*4B
1497938660.76,41786,20.63,74504.3,19.65,-21.93,-22.87,0,*4C
1497938661.96,41787,20.63,74506.8,19.67,-22.41,-23.39,0,*47
1497938663.19,41788,20.63,74506.0,19.65,-21.93,-22.87,0,*42
1497938664.42,41789,20.69,74506.0,19.67,-21.83,-22.87,0,*40
1497938665.64,41790,20.69,74510.0,19.69,-22.07,-22.97,0,*48
1497938666.93,41791,20.63,74506.0,19.69,-22.17,-23.03,0,*44
1497938668.21,41792,20.69,74508.3,19.69,-22.17,-23.19,0,*4C
1497938669.44,41793,20.63,74504.0,19.69,-21.63,-22.67,0,*45
1497938670.68,41794,20.63,74502.3,19.71,-21.53,-22.53,0,*4F
1497938671.93,41795,20.63,74504.0,19.75,-21.83,-22.73,0,*45
1497938673.13,41796,20.63,74504.0,19.71,-21.43,-22.37,0,*4E
1497938674.33,41797,20.69,74506.0,19.75,-22.27,-23.43,0,*48
1497938675.58,41798,20.63,74502.0,19.75,-23.29,-24.41,0,*4D
1497938676.84,41799,20.63,74500.5,19.71,-23.19,-24.21,0,*4D
1497938678.04,41800,20.69,74504.0,19.75,-22.63,-23.59,0,*42
1497938679.24,41801,20.63,74506.0,19.75,-22.41,-23.43,0,*48
1497938680.45,41802,20.63,74506.0,19.71,-22.83,-23.79,0,*48
1497938681.65,41803,20.69,74506.3,19.75,-22.41,-23.43,0,*4A
1497938682.9,41804,20.63,74502.0,19.75,-23.69,-24.71,0,*40
1497938684.13,41805,20.69,74502.0,19.75,-22.93,-23.85,0,*49
1497938685.35,41806,20.63,74498.0,19.75,-22.07,-23.03,0,*49
1497938686.58,41807,20.63,74500.0,19.75,-22.27,-23.23,0,*48
1497938687.79,41808,20.63,74502.0,19.75,-22.93,-23.89,0,*48
1497938689.04,41809,20.63,74504.8,19.75,-23.29,-24.25,0,*48
1497938690.3,41810,20.63,74502.0,19.71,-22.17,-23.19,0,*40
1497938691.52,41811,20.63,74502.3,19.77,-22.07,-22.93,0,*45
1497938692.8,41812,20.63,74500.0,19.77,-21.83,-22.77,0,*43
1497938693.99,41813,20.63,74500.5,19.79,-23.39,-24.61,0,*4E
1497938695.26,41814,20.63,74502.3,19.75,-24.71,-25.97,0,*46
1497938696.46,41815,20.63,74500.5,19.75,-23.39,-24.51,0,*47
1497938697.69,41816,20.63,74504.5,19.71,-23.49,-24.61,0,*44
1497938698.91,41817,20.63,74504.0,19.75,-23.39,-24.41,0,*44
1497938700.17,41818,20.63,74506.8,19.71,-23.19,-24.21,0,*4B
1497938701.42,41819,20.63,74502.3,19.75,-23.03,-23.99,0,*41
1497938702.64,41820,20.63,74504.3,19.71,-22.97,-24.11,0,*44
1497938703.85,41821,20.69,74508.8,19.71,-25.39,-26.61,0,*43
1497938705.1,41822,20.69,74504.3,19.69,-25.29,-26.61,0,*48
1497938706.29,41823,20.69,74506.0,19.67,-25.19,-26.49,0,*4E
1497938707.52,41824,20.63,74506.5,19.67,-25.13,-26.33,0,*4E
1497938708.8,41825,20.63,74506.5,19.63,-25.55,-26.77,0,*49
1497938710.05,41826,20.63,74504.5,19.63,-23.65,-24.61,0,*4A
1497938711.3,41827,20.63,74500.5,19.63,-22.77,-23.79,0,*47
1497938712.52,41828,20.63,74504.5,19.61,-22.67,-23.65,0,*46
1497938713.78,41829,20.63,74502.3,19.65,-21.93,-23.03,0,*4B
1497938715.07,41830,20.63,74500.5,19.65,-22.31,-23.23,0,*4A
1497938716.32,41831,20.63,74502.3,19.65,-22.63,-23.69,0,*42
1497938717.59,41832,20.63,74502.0,19.65,-23.03,-23.99,0,*49
1497938718.85,41833,20.63,74506.0,19.65,-22.47,-23.59,0,*45
1497938720.11,41834,20.63,74504.8,19.67,-22.77,-23.85,0,*42
1497938721.35,41835,20.69,74508.0,19.67,-23.69,-24.67,0,*46
1497938722.58,41836,20.63,74506.8,19.67,-22.73,-23.75,0,*4B
1497938723.79,41837,20.63,74504.8,19.67,-24.05,-25.13,0,*4B
1497938725.03,41838,20.63,74506.0,19.67,-22.73,-23.69,0,*48
1497938726.26,41839,20.63,74504.3,19.67,-22.27,-23.23,0,*46
1497938727.52,41840,20.63,74504.8,19.67,-21.97,-23.03,0,*42
1497938728.75,41841,20.69,74506.5,19.69,-21.93,-22.87,0,*44
1497938729.98,41842,20.63,74502.0,19.69,-21.73,-22.57,0,*44
1497938731.2,41843,20.69,74508.3,19.69,-22.07,-23.13,0,*44
1497938732.4,41844,20.69,74508.0,19.71,-22.67,-23.75,0,*4C
1497938733.65,41845,20.63,74506.8,19.75,-23.53,-24.67,0,*4B
1497938734.88,41846,20.63,74506.0,19.71,-23.23,-24.35,0,*4C
1497938736.13,41847,20.63,74506.5,19.71,-22.77,-23.65,0,*4F
1497938737.39,41848,20.63,74506.8,19.71,-21.87,-22.77,0,*4E
1497938738.66,41849,20.63,74504.8,19.71,-22.17,-23.19,0,*4C
1497938739.86,41850,20.63,74506.5,19.75,-21.63,-22.63,0,*4C
1497938741.08,41851,20.63,74506.5,19.75,-22.27,-23.29,0,*41
1497938742.36,41852,20.63,74506.3,19.77,-22.77,-23.85,0,*43
1497938743.62,41853,20.63,74506.8,19.77,-24.05,-25.03,0,*49
1497938744.89,41854,20.63,74504.5,19.77,-23.29,-24.15,0,*41
1497938746.14,41855,20.63,74506.3,19.77,-23.99,-24.97,0,*41
1497938747.39,41856,20.63,74510.5,19.75,-23.85,-24.87,0,*4C
1497938748.59,41857,20.63,74508.3,19.75,-23.43,-24.57,0,*4A
1497938749.82,41858,20.63,74506.0,19.75,-23.53,-24.57,0,*44
1497938751.01,41859,20.63,74504.3,19.75,-22.87,-23.89,0,*49
1497938752.26,41860,20.63,74506.5,19.75,-22.31,-23.29,0,*44
1497938753.49,41861,20.63,74506.5,19.75,-22.17,-23.39,0,*40
1497938754.71,41862,20.63,74500.8,19.75,-22.07,-23.03,0,*4B
1497938755.97,41863,20.63,74504.3,19.77,-21.53,-22.57,0,*4A
1497938757.17,41864,20.63,74504.0,19.79,-21.13,-22.07,0,*42
1497938758.39,41865,20.69,74510.8,19.79,-22.07,-23.19,0,*4B
1497938759.64,41866,20.63,74506.5,19.79,-22.21,-23.03,0,*47
1497938760.87,41867,20.63,74506.8,19.81,-22.03,-22.97,0,*4D
1497938762.1,41868,20.63,74504.5,19.81,-21.63,-22.53,0,*4F
1497938763.3,41869,20.69,74510.0,19.83,-22.03,-22.93,0,*45
1497938764.56,41870,20.63,74506.0,19.83,-22.21,-23.03,0,*45
1497938765.8,41871,20.63,74506.3,19.87,-22.73,-23.69,0,*4B
1497938767.03,41872,20.69,74506.5,19.85,-25.23,-26.39,0,*48
1497938768.23,41873,20.63,74506.5,19.83,-23.79,-24.61,0,*49
1497938769.49,41874,20.63,74504.3,19.81,-22.57,-23.53,0,*47
1497938770.74,41875,20.69,74506.5,19.81,-22.83,-23.69,0,*46
1497938771.94,41876,20.63,74502.3,19.83,-22.63,-23.43,0,*41
1497938773.17,41877,20.63,74502.5,19.83,-21.97,-22.93,0,*44
1497938774.42,41878,20.63,74500.8,19.85,-21.77,-22.73,0,*4D
1497938775.65,41879,20.63,74502.5,19.87,-21.53,-22.27,0,*49
1497938776.9,41880,20.63,74506.0,19.85,-21.23,-22.11,0,*4F
1497938778.13,41881,20.63,74500.0,19.89,-21.47,-22.57,0,*42
1497938779.42,41882,20.63,74504.5,19.89,-22.21,-23.23,0,*40
1497938780.67,41883,20.63,74506.3,19.89,-21.57,-22.57,0,*41
1497938781.9,41884,20.69,74508.8,19.91,-22.53,-23.49,0,*46
1497938783.12,41885,20.63,74506.3,19.91,-22.67,-23.65,0,*4E
1497938784.36,41886,20.63,74506.0,19.91,-22.77,-23.75,0,*4D
1497938785.55,41887,20.63,74502.3,19.91,-22.07,-22.87,0,*47
1497938786.78,41888,20.63,74506.8,19.91,-22.27,-23.23,0,*45
1497938788.01,41889,20.63,74502.3,19.93,-22.11,-23.13,0,*40
1497938789.27,41890,20.63,74504.0,19.93,-22.47,-23.43,0,*4E
1497938790.52,41891,20.63,74504.0,19.93,-23.59,-24.67,0,*40
1497938791.74,41892,20.63,74506.0,19.91,-22.63,-23.65,0,*4C
1497938792.99,41893,20.69,74506.5,19.89,-22.21,-22.87,0,*4F
1497938794.25,41894,20.63,74504.8,19.91,-22.17,-23.03,0,*49
1497938795.51,41895,20.63,74506.5,19.93,-21.87,-22.83,0,*49
1497938796.71,41896,20.63,74504.5,19.95,-21.63,-22.57,0,*4F
1497938797.95,41897,20.63,74504.0,19.95,-22.73,-23.69,0,*40
1497938799.16,41898,20.63,74504.8,19.99,-21.63,-22.57,0,*4D
1497938800.38,41899,20.63,74506.8,19.95,-21.77,-22.77,0,*47
1497938801.58,41900,20.63,74506.0,19.95,-22.03,-22.97,0,*48
1497938802.84,41901,20.63,74506.5,19.95,-22.73,-23.85,0,*4C
1497938804.09,41902,20.63,74506.3,19.99,-23.65,-24.67,0,*4E
1497938805.31,41903,20.63,74506.5,19.99,-24.47,-25.49,0,*45
1497938806.54,41904,20.63,74504.3,19.95,-23.59,-24.71,0,*4C
1497938807.76,41905,20.63,74504.8,19.95,-23.09,-24.11,0,*4E
1497938809.0,41906,20.63,74506.5,19.93,-22.57,-23.43,0,*41
1497938810.25,41907,20.63,74506.5,19.95,-22.31,-23.29,0,*4A
1497938811.5,41908,20.63,74504.8,19.95,-23.23,-24.71,0,*4D
1497938812.72,41909,20.63,74504.3,19.95,-25.39,-26.71,0,*43
1497938813.97,41910,20.63,74506.0,19.95,-23.69,-24.83,0,*47
1497938815.2,41911,20.69,74506.5,19.93,-23.75,-24.57,0,*44
1497938816.44,41912,20.63,74504.3,19.93,-22.41,-23.29,0,*4F
1497938817.67,41913,20.63,74502.5,19.93,-22.11,-23.09,0,*49
1497938818.93,41914,20.63,74504.8,19.93,-21.97,-22.97,0,*45
1497938820.18,41915,20.63,74504.8,19.93,-23.43,-24.67,0,*46
1497938821.43,41916,20.63,74506.5,19.93,-23.13,-23.95,0,*4A
1497938822.68,41917,20.63,74504.8,19.95,-22.17,-23.29,0,*4F
1497938823.91,41918,20.63,74500.8,19.95,-22.57,-23.53,0,*49
1497938825.11,41919,20.63,74502.5,19.95,-22.57,-23.59,0,*42
1497938826.33,41920,20.63,74500.8,19.95,-22.27,-23.29,0,*48
1497938827.54,41921,20.63,74500.5,19.99,-21.77,-22.67,0,*48
1497938828.79,41922,20.63,74500.0,20.01,-21.93,-22.73,0,*4F
1497938830.02,41923,20.63,74500.0,20.01,-22.03,-23.13,0,*43
1497938831.27,41924,20.63,74498.8,20.01,-22.53,-23.65,0,*40
1497938832.5,41925,20.63,74502.3,19.99,-23.65,-24.77,0,*4A
1497938833.73,41926,20.63,74502.8,20.01,-22.67,-23.75,0,*44
1497938835.01,41927,20.63,74502.5,20.01,-22.47,-23.33,0,*45
1497938836.27,41928,20.63,74502.3,20.05,-23.95,-25.19,0,*4E
1497938837.55,41929,20.63,74502.0,20.01,-22.21,-23.19,0,*43
1497938838.77,41930,20.63,74506.0,20.01,-22.07,-22.97,0,*48
1497938840.0,41931,20.63,74504.3,20.01,-22.67,-23.75,0,*42
1497938841.26,41932,20.63,74504.8,20.01,-22.31,-23.13,0,*42
1497938842.48,41933,20.63,74502.8,20.01,-21.73,-22.67,0,*44
1497938843.71,41934,20.63,74504.5,20.03,-22.37,-23.33,0,*42
1497938844.97,41935,20.63,74508.5,20.05,-21.63,-22.47,0,*45
1497938846.22,41936,20.63,74506.8,20.05,-22.57,-23.69,0,*4F
1497938847.47,41937,20.63,74504.3,20.05,-24.93,-26.33,0,*4A
1497938848.67,41938,20.63,74502.8,20.03,-26.23,-27.29,0,*40
1497938849.93,41939,20.63,74502.0,20.03,-23.95,-24.71,0,*47
1497938851.16,41940,20.63,74502.3,19.99,-23.33,-24.31,0,*48
1497938852.4,41941,20.63,74504.5,20.01,-23.43,-24.61,0,*40
1497938853.61,41942,20.63,74504.3,19.99,-24.05,-25.13,0,*49
1497938854.84,41943,20.63,74502.5,19.99,-23.99,-25.13,0,*4A
1497938856.08,41944,20.63,74504.3,19.99,-24.35,-25.45,0,*4F
1497938857.3,41945,20.63,74500.5,19.99,-22.67,-23.65,0,*4B
1497938858.53,41946,20.63,74500.5,19.99,-22.53,-23.53,0,*4A
1497938859.76,41947,20.63,74502.3,19.99,-22.73,-23.79,0,*41
1497938860.99,41948,20.63,74502.5,19.99,-23.79,-25.03,0,*4E
1497938862.22,41949,20.63,74500.0,19.99,-22.73,-23.79,0,*4F
1497938863.42,41950,20.63,74502.8,19.99,-22.07,-23.09,0,*43
1497938864.67,41951,20.63,74498.3,20.01,-22.07,-23.19,0,*48
1497938865.87,41952,20.63,74502.0,19.99,-22.87,-23.89,0,*41
1497938867.06,41953,20.63,74504.5,19.99,-22.87,-23.89,0,*40
1497938868.3,41954,20.63,74506.5,19.99,-23.65,-24.61,0,*4B
1497938869.5,41955,20.63,74502.0,20.03,-23.43,-24.47,0,*43
1497938870.73,41956,20.63,74500.8,19.99,-22.27,-23.33,0,*4E
1497938871.99,41957,20.63,74500.8,20.01,-22.17,-23.13,0,*45
1497938873.22,41958,20.63,74502.0,20.01,-23.59,-24.61,0,*43
1497938874.47,41959,20.63,74500.8,20.01,-22.07,-23.23,0,*49
1497938875.7,41960,20.63,74500.0,20.01,-21.77,-22.83,0,*4C
1497938876.94,41961,20.63,74504.3,20.01,-22.37,-23.43,0,*47
1497938878.17,41962,20.69,74508.3,20.05,-22.03,-22.97,0,*4F
1497938879.42,41963,20.63,74506.5,20.05,-22.31,-23.13,0,*42
1497938880.65,41964,20.63,74504.3,20.03,-21.67,-22.63,0,*45
1497938881.91,41965,20.63,74502.0,20.05,-23.89,-25.03,0,*41
1497938883.16,41966,20.63,74506.5,20.05,-23.09,-24.11,0,*48
1497938884.44,41967,20.63,74504.0,20.05,-22.47,-23.53,0,*43
1497938885.7,41968,20.63,74504.8,20.07,-21.83,-22.77,0,*42
1497938886.9,41969,20.63,74504.3,20.07,-21.47,-22.41,0,*4E
1497938888.13,41970,20.63,74502.0,20.11,-21.57,-22.53,0,*43
1497938889.35,41971,20.63,74506.8,20.09,-21.73,-22.53,0,*4D
1497938890.64,41972,20.63,74504.0,20.13,-21.53,-22.47,0,*42
1497938891.87,41973,20.63,74504.3,20.13,-22.67,-23.89,0,*44
1497938893.1,41974,20.63,74506.8,20.13,-22.03,-22.97,0,*4F
1497938894.35,41975,20.63,74506.8,20.13,-21.67,-22.67,0,*40